Zurück zum Katalog

STARLINK-35305

AktivKommunikationVLEO
NORAD 66561·PAYLOAD·🇺🇸 United States

Gestartet Nov 21, 2025 von Cape Canaveral Space Force Station

Loading…

Nächste Überflüge (nächste 24 Stunden)

TLE

AktuellSource: CelesTrak SupGP

Epoche: Sep 15, 2026, 03:59 UTC

1 66561C 25268E   26258.16645833  .00043066  00000+0  15604-2 0  2580
2 66561  43.0036 356.9496 0001438 268.4952 260.8365 15.27545765    14

Verfolge STARLINK-35305 in Echtzeit mit AllMySat

Download on the App Store